Flag for U.S.A. Weather past 2 weeks in Jackson, Mississippi, U.S.A.

Now
77 °F

Sunny.


Feels Like: 78 °F
Forecast: 43 / 77 °F
Wind: 15 mph from South

Location: Hawkins Field

Current Time: Mar 29, 2015 at 3:33:06 PM

Latest Report: Mar 29, 2015 at 2:53 PM


Visibility: 10 mi

Pressure: 30.14 "Hg

Humidity: 39%

Dew point: 50 °F

Location of JacksonLocation

Historic Weather in Jackson — Graph

°F

Jackson temperature yesterday

Maximum temperature yesterday: 58 °F (at 4:53 PM)
Minimum temperature yesterday: 38 °F (at 6:53 AM)
Average temperature yesterday: 48 °F

Past Weeks' High & Low Weather Summary

 TemperatureHumidityPressure
High91 °F (Mar 15, 3:53 PM)97% (Mar 18, 10:53 PM)30.29 "Hg (Mar 18, 10:53 PM)
Low38 °F (Mar 28, 6:53 AM)29% (Mar 16, 3:53 PM)29.79 "Hg (Mar 26, 2:53 PM)
Average62 °F74%30.06 "Hg
* Reported Mar 14 1:53 PM — Mar 29 1:53 PM, Jackson, Weather by CustomWeather, © 2015

Note: Actual official high and low records may vary slightly from our data, if they occured in-between our weather recording intervals... More about our weather records

Advertising

Jackson weather history for previous 24 hours

 ConditionsComfort  
Time TempWeatherWind HumidityBarometerVisibility
1:53 PM
Sun, Mar 29
73 °FSunny.12 mph44%30.18 "Hg10 mi
12:53 PM69 °FSunny.13 mph47%30.21 "Hg10 mi
11:53 AM64 °FSunny.9 mph47%30.25 "Hg10 mi
10:53 AM57 °FOvercast.14 mph47%30.27 "Hg10 mi
9:53 AM52 °FOvercast.13 mph49%30.29 "Hg10 mi
8:53 AM47 °FOvercast.14 mph54%30.28 "Hg10 mi
7:53 AM45 °FPartly sunny.14 mph58%30.27 "Hg10 mi
6:53 AM44 °FOvercast.10 mph58%30.26 "Hg10 mi
5:53 AM44 °FOvercast.9 mph60%30.24 "Hg10 mi
4:53 AM44 °FOvercast.8 mph63%30.23 "Hg10 mi
3:53 AM44 °FOvercast.12 mph60%30.24 "Hg10 mi
2:53 AM44 °FOvercast.7 mph60%30.25 "Hg10 mi
1:53 AM43 °FOvercast.7 mph65%30.26 "Hg10 mi
12:53 AM43 °FClear.7 mph65%30.27 "Hg10 mi
11:53 PM
Sat, Mar 28
44 °FClear.9 mph65%30.27 "Hg10 mi
10:53 PM45 °FClear.9 mph63%30.27 "Hg10 mi
9:53 PM46 °FClear.8 mph61%30.25 "Hg10 mi
8:53 PM49 °FClear.8 mph55%30.23 "Hg10 mi
7:53 PM51 °FSunny.6 mph50%30.20 "Hg10 mi
6:53 PM54 °FSunny.12 mph45%30.19 "Hg10 mi
5:53 PM57 °FSunny.9 mph41%30.18 "Hg10 mi
4:53 PM58 °FSunny.8 mph41%30.19 "Hg10 mi
3:53 PM56 °FSunny.3 mph44%30.19 "Hg10 mi
Weather by CustomWeather, © 2015

See weather overviewHow to use our weather pages